Location: Chaptuzat
(46.0327°N, 3.1642°E)
Time: 14:08:05
(UTC+00:00)

Daily predictions for brighter satellites

Satellite Brightness Start Highest point End
(mag) Time Altitude Azimuth Time Altitude Azimuth Time Altitude Azimuth
Resurs 01 Rocket 1.7 20:12:21 10° SSE 20:16:48 90° WSW 20:21:17 10° NNW
COSMOS 2406 4.0 20:14:41 10° SSE 20:19:41 31° ESE 20:24:41 10° NE
Cosmos 2184 Rocket 4.2 20:18:07 10° N 20:24:13 57° ENE 20:30:20 10° SSE
Cosmos 1833 Rocket 2.8 20:19:40 10° S 20:25:08 57° ESE 20:30:39 10° NNE
H-2A R/B 2.3 20:22:11 10° NNE 20:26:40 81° WNW 20:31:10 10° SSW
Cosmos 1536 Rocket 3.5 20:26:52 10° S 20:31:11 72° E 20:35:32 10° NNE
Cosmos 1703 3.4 20:28:35 10° S 20:32:20 55° E 20:36:07 10° NNE
CARTOSAT-1 3.6 20:29:48 10° SSE 20:34:03 67° ENE 20:38:22 10° N
Cosmos 1741 Rocket 4.1 20:28:59 10° NNW 20:34:21 90° WSW 20:39:41 10° SSE
USA 245 3.4 20:32:10 10° SSE 20:35:57 48° ENE 20:39:00 10° N
Cosmos 1606 Rocket 4.4 20:32:10 10° N 20:36:08 34° ENE 20:39:49 11° SE
Ariane Rocket 3.1 20:33:01 10° SSE 20:38:07 82° WSW 20:43:14 10° NNW
CZ-4B R/B 1.6 20:43:25 10° N 20:46:17 59° WNW 20:49:07 10° SSW
ARIANE 5 R/B 4.0 20:44:14 11° ESE 20:47:40 25° ENE 20:51:19 10° N
Terra 2.7 20:44:04 12° SE 20:48:02 36° ENE 20:52:23 10° N
ATLAS 2AS CENTAUR R/B 4.1 20:43:25 10° NW 20:49:19 30° WSW 20:54:56 10° S
SPOT 3 Rocket 3.6 20:44:31 10° SSE 20:49:43 83° ENE 20:54:58 10° NNW
SPOT 5 2.9 20:46:56 13° SE 20:50:43 51° ENE 20:54:56 10° N
RESURS DK-1 3.2 20:48:56 10° NW 20:52:54 45° WSW 20:56:50 10° S
USA 276 3.4 20:50:06 10° WNW 20:52:58 38° N 20:55:50 10° ENE
FALCON 9 DEB 4.4 20:51:28 10° NW 20:54:30 35° NNE 20:57:32 10° E
Cosmos 1455 4.1 20:52:04 10° NNW 20:55:23 29° W 20:58:42 10° SSW
Cosmos 1726 Rocket 4.1 20:53:57 10° N 20:58:06 43° ENE 21:01:15 16° SE
Cosmos 1331 Rocket 4.1 20:56:56 10° SSW 21:02:14 84° WNW 21:07:34 10° NNE
IRAS Rocket 4.3 20:57:15 10° NNE 21:02:52 83° WNW 21:08:23 10° SSW
Cosmos 2082 Rocket 2.5 20:57:52 10° S 21:03:21 49° ESE 21:08:49 10° NE
Cosmos 2074 Rocket 4.2 20:58:18 10° NNW 21:04:33 72° W 21:10:44 10° S
Cosmos 2360 4.4 21:01:21 10° NNW 21:07:04 71° WSW 21:11:58 14° SSE
Helios 1A Rocket 2.9 21:04:55 16° SSE 21:08:03 71° ENE 21:12:10 10° N
Spot 2 Rocket 3.5 21:04:02 14° SSE 21:08:27 81° ENE 21:13:35 10° NNW
Cosmos 1328 3.8 21:05:03 12° S 21:08:37 62° E 21:12:34 10° NNE
Cosmos 2084 Rocket 3.3 21:07:14 10° NW 21:11:08 71° SW 21:13:53 20° SSE
Cosmos 2360 Rocket 4.5 21:09:46 10° N 21:12:44 14° NE 21:15:42 10° ENE
Nadezhda 1 Rocket 3.9 21:07:50 10° S 21:13:55 85° E 21:20:01 10° N
X-37B 1.8 21:22:53 10° W 21:25:10 22° SSW 21:25:27 22° SSW
ERS-1 Rocket 3.0 21:22:07 17° S 21:26:02 82° WSW 21:31:07 10° NNW
Cosmos 1892 3.2 21:26:27 25° SSE 21:28:08 41° E 21:31:43 10° NNE
Cosmos 1302 Rocket 4.0 21:29:08 10° SSW 21:34:20 89° WNW 21:39:34 10° NNE
Cosmos 2228 4.3 21:31:44 10° NNW 21:35:36 36° W 21:39:22 11° SSW
Cosmos 1892 Rocket 3.5 21:38:01 17° S 21:41:20 87° W 21:45:44 10° N
ASTRO F (AKARI) 4.5 21:40:19 32° SSE 21:41:48 72° ENE 21:45:18 10° N
Cosmos 968 Rocket 3.6 21:38:01 10° NNW 21:43:13 71° WSW 21:46:30 23° S
Cosmos 1697 Rocket 3.9 21:40:37 10° NW 21:45:38 34° WSW 21:49:50 14° SSW
Cosmos 1980 Rocket 2.4 21:40:55 10° NNW 21:46:34 67° WSW 21:50:07 23° S
SL-16 R/B 3.1 21:43:58 10° NNW 21:49:19 40° NE 21:52:57 19° ESE
Cosmos 1408 2.4 21:48:44 28° SSW 21:50:24 83° W 21:53:52 10° N
Cosmos 2058 Rocket 3.0 21:46:32 10° N 21:51:00 89° WSW 21:53:20 28° S
Cosmos 1626 Rocket 4.1 21:50:06 29° SE 21:51:38 40° E 21:55:44 10° NNE
ATLAS 5 CENTAUR R/B 1.1 21:50:51 19° SSW 21:53:25 68° SE 21:57:30 10° NE
SL-8 Rocket 4.0 21:47:59 10° N 21:54:14 78° E 21:58:01 25° SSE
CZ-2C R/B 4.1 21:50:20 10° N 21:54:48 60° WNW 21:58:48 12° SSW
Cosmos 2369 4.3 21:49:25 10° NW 21:54:58 51° WSW 21:58:31 22° S
USA 267 3.7 21:49:20 10° ENE 21:55:19 37° SE 21:59:30 18° S
SJ 16-02 2.8 21:57:40 10° N 22:01:30 28° ENE 22:03:35 19° ESE
SL-4 R/B 3.8 22:04:44 14° E 22:04:44 14° E 22:05:29 10° ENE
In-Cosmos 22 Rocket 4.1 21:59:04 24° S 22:02:31 75° E 22:07:56 10° NNE
COSMOS 2406 4.3 21:58:17 10° SW 22:03:48 46° WNW 22:09:20 10° NNE
Cosmos 1825 2.0 22:08:00 43° SSE 22:09:06 72° E 22:12:50 10° NNE
Cosmos 1867 4.2 22:07:36 10° NW 22:12:47 45° WSW 22:15:18 27° S
Cosmos 2366 rocket 4.0 22:08:14 10° N 22:14:37 89° W 22:18:15 28° S
Cosmos 1869 3.2 22:13:21 10° N 22:17:16 88° ENE 22:18:25 45° S
Cosmos 2218 Rocket 4.1 22:14:39 10° N 22:21:06 80° W 22:24:42 28° S
Cosmos 2322 Rocket 2.7 22:17:54 10° NNW 22:23:28 52° ENE 22:26:28 26° ESE
ARIANE 5 R/B 3.8 22:21:46 22° SSW 22:23:59 36° W 22:28:03 10° NNW
GP-B 3.4 22:19:57 10° N 22:24:21 61° W 22:26:27 29° SSW
Meteor 1-27 4.2 22:19:09 10° NNW 22:24:43 75° W 22:27:27 31° S
Terra 3.3 22:22:57 16° SW 22:25:50 28° W 22:29:56 10° NW
SAR-Lupe-4 3.7 22:24:56 10° N 22:28:30 70° WNW 22:29:35 42° SW
USA 276 1.9 22:25:52 10° WNW 22:28:43 76° W 22:28:43 76° W
USA 234 4.0 22:23:40 10° E 22:29:58 52° NNE 22:36:16 10° NW
FALCON 9 DEB 3.5 22:27:41 10° WNW 22:30:31 46° WSW 22:30:31 46° WSW
BREEZE-M DEB (TANK) 3.9 22:33:19 10° WNW 22:36:24 67° NNE 22:47:40 10° E
Cosmos 2278 4.3 22:31:25 10° NW 22:36:51 45° WSW 22:39:18 29° SSW
Cosmos 1633 2.2 22:39:00 72° SSE 22:39:19 84° E 22:42:47 10° N
Okean 1-7 Rocket 4.3 22:40:57 26° SW 22:43:10 50° WNW 22:47:34 10° N
Cosmos 1758 Rocket 3.5 22:42:24 49° SSE 22:43:29 73° E 22:47:54 10° NNE
Cosmos 2333 Rocket 3.5 22:39:02 10° NNW 22:44:14 33° NE 22:48:06 16° ESE
Cosmos 2082 Rocket 3.9 22:42:37 10° WSW 22:47:38 31° NW 22:52:41 10° N
ASTEX 1 4.4 22:43:27 10° N 22:48:08 41° WNW 22:51:09 20° SW
Cosmos 1606 2.7 22:50:01 10° N 22:53:52 68° E 22:54:21 60° SE
Cosmos-2242 2.9 22:50:00 10° N 22:54:16 86° W 22:55:10 55° S
Cosmos 1812 Rocket 3.7 22:50:34 10° NNW 22:55:00 68° W 22:56:09 47° SSW
ADEOS Rocket 3.6 22:53:13 30° SSE 22:57:16 71° ENE 23:05:01 10° N
Cosmos 2360 Rocket 2.5 22:52:19 10° NNW 22:57:58 62° ENE 23:00:32 32° SE
Cosmos 1340 Rocket 3.5 22:58:42 38° E 22:58:50 38° E 23:02:32 10° NNE
Gbstr 26 Del rocket 2.9 22:59:00 53° SSW 22:59:45 64° SE 23:04:37 10° ENE
Cosmos 1602 Rocket 4.2 23:05:35 33° SW 23:07:05 47° WNW 23:11:18 10° N
Cosmos 1821 Rocket 4.0 23:02:35 10° NNW 23:08:47 71° W 23:11:22 36° SSW
BREEZE-M DEB (TANK) 4.2 23:12:24 23° E 23:12:24 23° E 23:14:37 10° ENE
SL-27 R/B 4.3 23:13:18 19° ENE 23:13:18 19° ENE 23:14:51 10° NE
Cosmos 44 3.2 23:14:09 54° SSE 23:14:37 57° ESE 23:19:01 10° NE
Cosmos 1833 4.3 23:14:26 43° SSE 23:15:57 57° ESE 23:21:26 10° NNE
Cosmos 972 Rocket 4.3 23:11:14 10° NNW 23:16:28 66° ENE 23:18:41 37° SE
Cosmos 1354 Rocket 4.5 23:13:00 10° NNW 23:18:06 50° WSW 23:19:33 39° SSW
Cosmos 2237 4.3 23:15:04 10° NNW 23:20:44 62° WSW 23:22:30 42° S
ALOS 2 2.6 23:21:37 57° SSW 23:22:25 74° WSW 23:26:50 10° NNW
Spot 4 4.3 23:21:49 39° SW 23:23:00 48° W 23:27:41 10° NNW
ERS-2 2.8 23:19:46 10° NNE 23:22:56 42° E 23:22:56 42° E
CENTAUR R/B 3.6 23:22:31 23° ESE 23:23:19 24° ESE 23:28:23 10° ENE
Cosmos 1605 Rocket 4.5 23:19:18 10° N 23:25:34 53° ENE 23:28:27 31° SE
NOSS 8 (A) 4.5 23:29:30 68° N 23:29:30 68° N 23:32:12 10° NE
Cosmos 2058 3.1 23:29:58 54° SW 23:30:42 66° WNW 23:34:52 10° N
COSMOS 2428 3.9 23:25:25 10° NNW 23:30:43 37° NE 23:34:37 17° ESE
Nadezhda 3 Rocket 4.2 23:28:02 32° SSW 23:30:56 62° WNW 23:37:03 10° N
Cosmos 1777 Rocket 4.2 23:26:37 10° NNW 23:31:47 58° WSW 23:33:07 44° SSW
H-2A R/B 3.7 23:27:43 10° N 23:31:54 65° WNW 23:32:48 50° SW
SL-16 R/B 3.1 23:28:14 10° NW 23:33:21 35° WSW 23:34:48 31° SW
Cosmos 2219 Rocket 2.8 23:28:11 10° NNW 23:33:44 53° ENE 23:36:40 27° ESE
Cosmos 1953 Rocket 3.5 23:33:03 61° S 23:33:50 89° ESE 23:38:16 10° N
ATLAS 5 CENTAUR R/B 4.0 23:35:34 10° WNW 23:38:28 19° NNW 23:41:40 10° NNE
USA 267 3.4 23:32:07 10° NE 23:38:40 76° NNW 23:45:11 10° WSW
SJ 16-02 2.4 23:36:06 10° NW 23:40:03 32° W 23:40:31 31° WSW
SL-4 R/B 2.2 23:40:05 30° W 23:41:35 56° NNW 23:45:13 10° ENE
Meteor 2-2 Rocket 4.5 23:36:03 10° NNW 23:42:02 67° W 23:44:11 40° SSW
Cosmos 1825 Rocket 4.2 23:41:10 39° WSW 23:42:13 47° WNW 23:46:26 10° N
Cosmos 2322 4.1 23:37:18 10° NNW 23:42:55 57° ENE 23:45:44 29° SE
Cosmos 2221 2.4 23:47:12 10° N 23:51:35 86° W 23:52:14 64° S
PSLV R/B 3.7 23:49:53 10° NNE 23:54:39 75° ESE 23:55:36 55° S
